#timestamp,LO_Frequency,Hit,StdDev 
1620050415.3,286047003.4,N
1620050435.1,286047004.0,N
1620050455.9,286047000.1,N
1620050475.7,286047003.7,N
1620050495.6,286047004.2,N
1620050515.4,286047002.8,N
1620050535.2,286047001.1,N
1620050555.1,286046998.5,N
1620050556.0,286046998.5,N
1620050575.8,286046997.5,N
1620050595.7,286046997.1,N
1620050615.5,286046995.1,N
1620050635.3,286046998.9,N
1620050655.2,286046998.1,N
1620050675.0,286046999.7,N
1620050675.9,286046999.7,N
1620050695.8,286047003.8,N
1620050715.6,286047004.0,N
1620050735.4,286047002.6,N
1620050755.3,286047001.1,N
1620050775.1,286047000.3,N
1620050795.8,286047001.7,N
1620050815.7,286047002.2,N
1620050835.5,286047002.3,N
1620050855.4,286047000.8,N
1620050875.2,286047000.4,N
1620050895.0,286046998.8,N
1620050895.9,286046998.8,N
1620050915.8,286046998.4,N
1620050935.6,286047002.2,N
1620050955.5,286047003.5,N
1620050975.3,286047003.2,N
1620050995.1,286047001.4,N
1620051015.9,286047002.7,N
1620051035.7,286047001.8,N
1620051055.6,286047002.2,N
1620051075.4,286047002.4,N
1620051095.2,286047002.8,N
1620051115.1,286046999.9,N
1620051116.0,286046999.9,N
1620051135.8,286046999.3,N
1620051155.6,286046999.0,N
1620051175.5,286046996.6,N
1620051195.3,286046996.4,N
1620051215.2,286046992.8,Y
1620051235.9,286046992.7,P
1620051255.7,286046991.2,N
1620051275.6,286046989.7,N
1620051295.4,286046989.4,N
1620051315.2,286046988.4,N
1620051335.1,286046985.3,Y
1620051336.0,286046985.3,P
1620051355.8,286046996.4,N
1620051375.7,286047003.9,N
1620051395.5,286047002.1,N
1620051415.3,286047000.1,N
1620051435.2,286046998.5,N
1620051455.0,286047000.2,N
1620051455.9,286047000.2,N
1620051475.8,286046998.9,N
1620051495.6,286046996.0,N
1620051515.4,286046993.7,N
1620051535.3,286046996.5,N
1620051555.1,286047001.1,N
1620051556.0,286047001.1,N
1620051575.8,286047000.3,N
1620051595.7,286047000.5,N
1620051615.5,286046998.8,N
1620051635.3,286046996.8,N
1620051655.2,286046993.3,N
1620051675.0,286046992.1,N
1620051675.9,286046992.1,N
1620051695.8,286046993.0,N
1620051715.6,286046992.0,N
1620051735.4,286046992.3,N
1620051755.3,286046992.9,N
1620051775.1,286046989.5,N
1620051795.9,286046985.5,Y
1620051815.7,286046990.5,P
1620051835.5,286046991.3,P
1620051855.4,286046991.5,P
1620051875.2,286046989.1,Y
1620051895.0,286047000.8,P
1620051895.9,286047000.8,N
1620051915.8,286046996.7,N
1620051935.6,286046995.6,N
1620051955.5,286046995.3,N
1620051975.3,286046997.6,N
1620051995.1,286046998.8,N
1620052015.9,286047001.4,N
1620052035.7,286047004.0,N
1620052055.5,286047001.6,N
1620052075.4,286047000.3,N
1620052095.2,286047000.7,N
1620052115.1,286047002.4,N
1620052116.0,286047002.4,N
1620052135.8,286047001.5,N
1620052155.6,286047001.9,N
1620052175.5,286047002.1,N
1620052195.3,286047000.0,N
1620052215.1,286047001.1,N
1620052235.9,286046998.1,N
1620052255.7,286046999.6,N
1620052275.6,286046998.7,N
1620052295.4,286046999.0,N
1620052315.2,286046996.6,N
1620052335.1,286047002.7,N
1620052336.0,286047002.7,N
1620052355.8,286047001.9,N
1620052375.6,286047001.9,N
1620052395.5,286047002.8,N
1620052415.3,286047004.2,N
1620052435.2,286047001.3,N
1620052455.9,286047004.4,N
1620052475.7,286046999.9,N
1620052495.6,286046998.2,N
1620052515.4,286047002.5,N
1620052535.2,286047003.8,N
1620052555.1,286047001.3,N
1620052556.0,286047001.3,N
1620052575.8,286047004.8,N
1620052595.7,286047003.2,N
1620052615.5,286047003.0,N
1620052635.3,286047003.9,N
1620052655.2,286047001.3,N
1620052675.9,286047004.3,N
1620052695.7,286047005.9,N
1620052715.6,286047004.7,N
1620052735.4,286047004.5,N
1620052755.2,286047002.9,N
1620052775.1,286047003.0,N
1620052776.0,286047003.0,N
1620052795.8,286047004.7,N
1620052815.7,286047003.0,N
1620052835.5,286047002.9,N
1620052855.3,286047005.7,N
1620052875.2,286047008.0,Y
1620052895.0,286047004.7,P
1620052895.9,286047004.7,P
1620052915.8,286047001.5,N
1620052935.6,286047001.3,N
1620052955.4,286047004.4,N
1620052975.3,286047004.0,N
1620052995.1,286047003.9,N
1620053015.8,286047000.9,N
1620053035.7,286046996.5,N
1620053055.5,286046997.2,N
1620053075.4,286047000.9,N
1620053095.2,286047002.4,N
1620053115.0,286047002.7,N
1620053115.9,286047002.7,N
1620053135.8,286047001.6,N
1620053155.6,286047001.5,N
1620053175.4,286047001.8,N
1620053195.3,286047003.5,N
1620053215.1,286047001.3,N
1620053235.9,286047003.8,N
1620053255.7,286047005.3,N
1620053275.5,286047006.0,N
1620053295.4,286047003.1,N
1620053315.2,286047003.8,N
1620053335.0,286047005.1,N
1620053335.9,286047005.1,N
1620053355.8,286047005.4,N
1620053375.6,286047005.1,N
1620053395.5,286047006.7,Y
1620053415.3,286047002.2,P
1620053435.1,286047000.7,N
1620053455.9,286046999.9,N
1620053475.7,286047002.8,N
1620053495.5,286047001.5,N
1620053515.4,286047003.9,Y
1620053535.2,286047000.6,P
1620053555.1,286047002.6,P
1620053556.0,286047002.6,P
1620053575.8,286046998.9,N
1620053595.6,286046999.3,N
1620053615.5,286047000.6,N
1620053635.3,286047001.5,N
1620053655.1,286047001.7,N
1620053675.9,286047003.2,N
1620053695.7,286047004.0,N
1620053715.6,286047003.4,N
1620053735.4,286047004.7,Y
1620053755.3,286047004.0,P
1620053775.1,286047003.1,N
1620053776.0,286047003.1,P
1620053795.8,286047001.9,N
1620053815.7,286047002.3,N
1620053835.5,286047002.3,N
1620053855.4,286047003.7,Y
1620053875.2,286047002.3,P
1620053895.0,286047000.5,N
1620053895.9,286047000.5,N
1620053915.8,286046998.2,N
1620053935.6,286047000.0,N
1620053955.4,286046999.0,N
1620053975.3,286046997.3,N
1620053995.1,286046997.8,N
